Location: Ethel Rock
(53.4667°N, 4.5667°W)
Time: 05:29:11
(UTC+00:00)

Meteor 1-24 Rocket - Pass Details

Date: 24 October 2020
Orbit: 791 x 926 km, 81.3° (Epoch: 25 November)

Event Time Altitude Azimuth Distance (km) Brightness Sun altitude
Rises 06:10:54 0° 202° (SSW) 3,377 6.7 -8.3°
Reaches altitude 10° 06:13:17 10° 206° (SSW) 2,466 6.0 -8.0°
Maximum altitude 06:18:51 64° 287° (WNW) 964 3.8 -7.2°
Drops below altitude 10° 06:24:40 10° 9° (N) 2,575 6.2 -6.3°
Sets 06:27:13 0° 13° (NNE) 3,537 7.0 -5.9°
